• In Hungary
  • List of Countries
  • For 7 days
  • Water Temperature
  • Satellite Maps
  • Weather Map
  • News
  • Weather Widgets
  • user-avatar
    Login

    Hourly Weather Gorbunovka

    Today, 20 September, Thursday

    Time Temperature Precipitation Wind Pressure Humidity
    00:00 +8°C° 0.1 mm 6 mps 733 mmHg 87%
    01:00 +7°C° 0.1 mm 6 mps 733 mmHg 87%
    02:00 +7°C° 0 mm 6 mps 733 mmHg 88%
    03:00 +5°C° 0 mm 6 mps 734 mmHg 88%
    04:00 +5°C° 0 mm 6 mps 734 mmHg 88%
    05:00 +5°C° 0 mm 6 mps 734 mmHg 88%
    06:00 +5°C° 0 mm 6 mps 734 mmHg 89%
    07:00 +4°C° 0 mm 6 mps 734 mmHg 89%
    08:00 +5°C° 0 mm 6 mps 735 mmHg 85%
    09:00 +7°C° 0 mm 6 mps 735 mmHg 82%
    10:00 +6°C° 0 mm 7 mps 735 mmHg 79%
    11:00 +8°C° 0 mm 7 mps 735 mmHg 75%
    12:00 +9°C° 0 mm 6 mps 735 mmHg 71%
    13:00 +10°C° 0 mm 6 mps 736 mmHg 66%
    14:00 +10°C° 0 mm 6 mps 736 mmHg 65%
    15:00 +11°C° 0 mm 6 mps 736 mmHg 65%
    16:00 +12°C° 0 mm 5 mps 736 mmHg 64%
    17:00 +11°C° 0 mm 4 mps 736 mmHg 67%
    18:00 +10°C° 0 mm 4 mps 737 mmHg 71%
    19:00 +9°C° 0 mm 3 mps 737 mmHg 75%
    20:00 +9°C° 0 mm 3 mps 737 mmHg 77%
    21:00 +8°C° 0 mm 3 mps 737 mmHg 79%
    22:00 +7°C° 0 mm 3 mps 737 mmHg 81%
    23:00 +7°C° 0 mm 3 mps 737 mmHg 82%

    Tomorrow, 21 September, Friday

    Time Temperature Precipitation Wind Pressure Humidity
    00:00 +5°C° 0 mm 3 mps 737 mmHg 83%
    01:00 +5°C° 0 mm 3 mps 737 mmHg 85%
    02:00 +5°C° 0 mm 3 mps 737 mmHg 86%
    03:00 +4°C° 0 mm 3 mps 738 mmHg 87%
    04:00 +4°C° 0 mm 3 mps 738 mmHg 88%
    05:00 +4°C° 0 mm 3 mps 738 mmHg 89%
    06:00 +4°C° 0 mm 3 mps 739 mmHg 89%
    07:00 +4°C° 0 mm 3 mps 739 mmHg 89%
    08:00 +5°C° 0 mm 3 mps 739 mmHg 83%
    09:00 +7°C° 0 mm 4 mps 740 mmHg 76%
    10:00 +10°C° 0 mm 4 mps 740 mmHg 69%
    11:00 +11°C° 0 mm 4 mps 740 mmHg 65%
    12:00 +12°C° 0 mm 4 mps 740 mmHg 61%
    13:00 +13°C° 0 mm 5 mps 741 mmHg 56%
    14:00 +13°C° 0 mm 5 mps 741 mmHg 56%
    15:00 +14°C° 0 mm 5 mps 741 mmHg 56%
    16:00 +14°C° 0 mm 5 mps 741 mmHg 55%
    17:00 +12°C° 0 mm 4 mps 742 mmHg 60%
    18:00 +11°C° 0 mm 3 mps 742 mmHg 66%
    19:00 +9°C° 0 mm 2 mps 742 mmHg 71%
    20:00 +9°C° 0 mm 2 mps 743 mmHg 72%
    21:00 +8°C° 0 mm 2 mps 743 mmHg 73%
    22:00 +8°C° 0 mm 2 mps 743 mmHg 75%
    23:00 +7°C° 0 mm 2 mps 744 mmHg 77%

    Day after tomorrow, 22 September, Saturday

    Time Temperature Precipitation Wind Pressure Humidity
    00:00 +7°C° 0 mm 2 mps 744 mmHg 79%
    01:00 +7°C° 0 mm 2 mps 744 mmHg 82%
    02:00 +7°C° 0 mm 2 mps 744 mmHg 84%
    03:00 +7°C° 0 mm 2 mps 745 mmHg 87%
    04:00 +8°C° 0 mm 1 mps 745 mmHg 89%
    05:00 +7°C° 0 mm 2 mps 745 mmHg 91%
    06:00 +7°C° 0 mm 2 mps 745 mmHg 93%
    07:00 +7°C° 0 mm 2 mps 746 mmHg 95%
    08:00 +9°C° 0 mm 2 mps 746 mmHg 92%
    09:00 +11°C° 0 mm 3 mps 746 mmHg 88%
    10:00 +13°C° 0 mm 3 mps 746 mmHg 85%
    11:00 +16°C° 0 mm 3 mps 746 mmHg 81%
    12:00 +17°C° 0 mm 3 mps 746 mmHg 77%
    13:00 +19°C° 0 mm 4 mps 746 mmHg 73%
    14:00 +19°C° 0 mm 3 mps 746 mmHg 73%
    15:00 +19°C° 0 mm 3 mps 746 mmHg 73%
    16:00 +19°C° 0 mm 3 mps 746 mmHg 73%
    17:00 +18°C° 0 mm 3 mps 746 mmHg 78%
    18:00 +17°C° 0 mm 3 mps 746 mmHg 84%
    19:00 +16°C° 0 mm 3 mps 746 mmHg 89%
    20:00 +14°C° 0 mm 3 mps 746 mmHg 90%
    21:00 +14°C° 0 mm 3 mps 746 mmHg 91%
    22:00 +13°C° 0 mm 3 mps 746 mmHg 92%
    23:00 +13°C° 0 mm 3 mps 746 mmHg 93%

    23 September, Sunday

    Time Temperature Precipitation Wind Pressure Humidity
    00:00 +13°C° 0 mm 3 mps 746 mmHg 93%
    01:00 +12°C° 0 mm 3 mps 746 mmHg 93%
    02:00 +12°C° 0 mm 3 mps 746 mmHg 93%
    03:00 +12°C° 0 mm 3 mps 746 mmHg 94%
    04:00 +12°C° 0 mm 3 mps 746 mmHg 94%
    05:00 +12°C° 0 mm 3 mps 746 mmHg 94%
    06:00 +13°C° 0 mm 2 mps 746 mmHg 94%
    07:00 +12°C° 0 mm 2 mps 746 mmHg 94%
    08:00 +13°C° 0 mm 3 mps 746 mmHg 89%
    09:00 +16°C° 0 mm 3 mps 746 mmHg 83%
    10:00 +17°C° 0 mm 3 mps 746 mmHg 78%
    11:00 +19°C° 0 mm 3 mps 746 mmHg 74%
    12:00 +20°C° 0 mm 4 mps 746 mmHg 69%
    13:00 +21°C° 0 mm 4 mps 746 mmHg 65%
    14:00 +21°C° 0 mm 4 mps 745 mmHg 64%
    15:00 +21°C° 0 mm 4 mps 745 mmHg 64%
    16:00 +21°C° 0 mm 4 mps 745 mmHg 64%
    17:00 +19°C° 0 mm 3 mps 744 mmHg 69%
    18:00 +18°C° 0 mm 3 mps 744 mmHg 75%
    19:00 +16°C° 0 mm 3 mps 744 mmHg 81%
    20:00 +16°C° 0 mm 3 mps 744 mmHg 81%
    21:00 +14°C° 0 mm 3 mps 743 mmHg 82%
    22:00 +14°C° 0 mm 3 mps 743 mmHg 83%
    23:00 +14°C° 0 mm 3 mps 743 mmHg 82%

    24 September, Monday

    Time Temperature Precipitation Wind Pressure Humidity
    00:00 +13°C° 0 mm 3 mps 743 mmHg 82%
    01:00 +13°C° 0 mm 3 mps 743 mmHg 81%
    02:00 +13°C° 0 mm 4 mps 743 mmHg 79%
    03:00 +12°C° 0 mm 4 mps 743 mmHg 78%
    04:00 +12°C° 0 mm 4 mps 742 mmHg 77%
    05:00 +12°C° 0 mm 4 mps 742 mmHg 75%
    06:00 +12°C° 0 mm 4 mps 742 mmHg 74%
    07:00 +11°C° 0 mm 4 mps 742 mmHg 72%
    08:00 +13°C° 0 mm 5 mps 742 mmHg 65%
    09:00 +15°C° 0 mm 6 mps 742 mmHg 58%
    10:00 +16°C° 0 mm 6 mps 742 mmHg 51%
    11:00 +17°C° 0 mm 6 mps 742 mmHg 49%
    12:00 +20°C° 0 mm 6 mps 742 mmHg 46%
    13:00 +21°C° 0 mm 7 mps 742 mmHg 44%
    14:00 +21°C° 0 mm 6 mps 742 mmHg 46%
    15:00 +20°C° 0 mm 5 mps 742 mmHg 49%
    16:00 +20°C° 0 mm 4 mps 742 mmHg 51%
    17:00 +19°C° 0 mm 3 mps 742 mmHg 55%
    18:00 +18°C° 0 mm 3 mps 742 mmHg 60%
    19:00 +16°C° 0 mm 2 mps 742 mmHg 64%
    20:00 +16°C° 0 mm 2 mps 742 mmHg 66%
    21:00 +15°C° 0 mm 2 mps 742 mmHg 67%
    22:00 +15°C° 0 mm 1 mps 741 mmHg 68%
    23:00 +15°C° 0 mm 2 mps 741 mmHg 65%

    25 September, Tuesday

    Time Temperature Precipitation Wind Pressure Humidity
    00:00 +14°C° 0 mm 3 mps 741 mmHg 63%
    01:00 +14°C° 0 mm 4 mps 741 mmHg 60%
    02:00 +14°C° 0 mm 4 mps 741 mmHg 59%
    03:00 +14°C° 0 mm 4 mps 740 mmHg 57%
    04:00 +13°C° 0 mm 5 mps 740 mmHg 56%
    05:00 +13°C° 0 mm 5 mps 740 mmHg 60%
    06:00 +13°C° 0 mm 5 mps 740 mmHg 63%
    07:00 +13°C° 0 mm 5 mps 740 mmHg 66%
    08:00 +14°C° 0 mm 6 mps 740 mmHg 65%
    09:00 +16°C° 0 mm 7 mps 740 mmHg 64%
    10:00 +17°C° 0 mm 9 mps 740 mmHg 63%
    11:00 +18°C° 0 mm 9 mps 740 mmHg 60%
    12:00 +19°C° 0 mm 9 mps 740 mmHg 58%
    13:00 +19°C° 0 mm 9 mps 740 mmHg 55%
    14:00 +20°C° 0 mm 8 mps 740 mmHg 59%
    15:00 +18°C° 0 mm 7 mps 740 mmHg 63%
    16:00 +17°C° 0 mm 5 mps 740 mmHg 67%
    17:00 +17°C° 0.1 mm 5 mps 740 mmHg 70%
    18:00 +17°C° 0.1 mm 4 mps 740 mmHg 73%
    19:00 +17°C° 0.1 mm 4 mps 740 mmHg 76%
    20:00 +16°C° 0.1 mm 3 mps 740 mmHg 77%
    21:00 +16°C° 0.1 mm 3 mps 740 mmHg 79%
    22:00 +16°C° 0.1 mm 3 mps 741 mmHg 80%
    23:00 +14°C° 0 mm 3 mps 741 mmHg 80%
    Show more